Home   Weather   Chișinău   Past weeks

Flag for Moldova Past Weather in Chișinău, Moldova — Yesterday and Last 2 Weeks

Now
7 °F

Ice fog.


Feels Like: 7 °F
Forecast: 16 / 34 °F
Wind: 2 mph from North

Location: Chisinau International Airport

Current Time: Jan 20, 2017 at 8:12:06 am

Latest Report: Jan 20, 2017 at 7:30 am


Visibility: 0 mi

Pressure: 30.57 "Hg

Humidity: 92%

Dew Point: 5 °F

Location of ChișinăuLocation

Past Weather in Chișinău — Graph

°F

Chișinău Temperature Yesterday

Maximum temperature yesterday: 25 °F (at 3:30 pm)
Minimum temperature yesterday: 14 °F (at 10:00 pm)
Average temperature yesterday: 20 °F

High & Low Weather Summary for the Past Weeks

 TemperatureHumidityPressure
High45 °F (Jan 5, 1:30 pm)100% (Jan 15, 3:00 am)30.69 "Hg (Jan 15, 3:00 am)
Low3 °F (Jan 7, 6:30 am)37% (Jan 5, 1:30 pm)29.47 "Hg (Jan 14, 9:30 am)
Average21 °F80%30.09 "Hg
* Reported Jan 5 7:00 am — Jan 20 7:00 am, Chișinău, Weather by CustomWeather, © 2017

Note: Actual official high and low records may vary slightly from our data, if they occured in-between our weather recording intervals... More about our weather records

Advertising

Chișinău Weather History for the Previous 24 Hours

Scroll right to see more
 ConditionsComfort  
Time TempWeatherWind HumidityBarometerVisibility
7:00 am
Fri, Jan 20
9 °FIce fog.2 mph85%30.60 "Hg0 mi
6:30 am9 °FIce fog.2 mph85%30.57 "Hg0 mi
6:00 am9 °FIce fog.No wind85%30.60 "Hg0 mi
5:30 am9 °FIce fog.2 mph92%30.60 "Hg0 mi
5:00 am9 °FIce fog.3 mph92%30.60 "Hg0 mi
4:30 am10 °FIce fog.5 mph85%30.60 "Hg0 mi
4:00 am10 °FIce fog.2 mph92%30.60 "Hg0 mi
3:30 am10 °FIce fog.1 mph92%30.63 "Hg0 mi
3:00 am10 °FIce fog.No wind92%30.63 "Hg0 mi
2:30 am12 °FIce fog.No wind85%30.63 "Hg0 mi
2:00 am12 °FIce fog.3 mph85%30.63 "Hg0 mi
1:30 am10 °FIce fog.2 mph85%30.63 "Hg0 mi
1:00 am9 °FPassing clouds.No wind92%30.63 "Hg0 mi
12:30 am12 °FIce fog.No wind92%30.63 "Hg1 mi
12:00 am9 °FIce fog.No wind92%30.63 "Hg1 mi
11:30 pm
Thu, Jan 19
14 °FIce fog.No wind92%30.63 "Hg2 mi
11:00 pm16 °FIce fog.2 mph93%30.66 "Hg1 mi
10:30 pm14 °FSmoke.1 mph92%30.66 "HgN/A
10:00 pm14 °FIce fog.No wind85%30.66 "Hg2 mi
9:30 pm16 °FIce fog.2 mph93%30.66 "Hg2 mi
9:00 pm16 °FIce fog.2 mph93%30.66 "Hg2 mi
8:30 pm18 °FIce fog.2 mph86%30.63 "Hg3 mi
8:00 pm18 °FClear.6 mph86%30.66 "Hg3 mi
7:30 pm18 °FClear.9 mph93%30.66 "Hg2 mi
7:00 pm19 °FClear.10 mph86%30.63 "Hg2 mi
6:30 pm19 °FClear.10 mph86%30.63 "Hg3 mi
6:00 pm19 °FClear.10 mph86%30.63 "Hg3 mi
5:30 pm21 °FClear.10 mph80%30.63 "Hg4 mi
5:00 pm21 °FClear.10 mph80%30.63 "Hg10 mi
4:30 pm21 °FSunny.12 mph86%30.63 "Hg10 mi
4:00 pm23 °FSunny.13 mph80%30.66 "Hg10 mi
3:30 pm25 °FSunny.9 mph74%30.66 "Hg10 mi
3:00 pm23 °FSunny.8 mph80%30.66 "Hg10 mi
2:30 pm23 °FScattered clouds.8 mph80%30.66 "HgN/A
2:00 pm23 °FScattered clouds.9 mph74%30.66 "HgN/A
1:30 pm23 °FScattered clouds.8 mph74%30.66 "HgN/A
1:00 pm21 °FPartly sunny.9 mph80%30.66 "HgN/A
12:30 pm21 °FPartly sunny.8 mph80%30.69 "HgN/A
12:00 pm21 °FPartly sunny.9 mph80%30.69 "HgN/A
11:30 am21 °FPartly sunny.9 mph80%30.69 "HgN/A
11:00 am21 °FLow clouds.10 mph80%30.69 "HgN/A
10:30 am19 °FLow clouds.9 mph86%30.69 "HgN/A
10:00 am19 °FLow clouds.9 mph86%30.69 "HgN/A
9:30 am19 °FLow clouds.12 mph86%30.69 "HgN/A
9:00 am19 °FLow clouds.10 mph86%30.69 "HgN/A
8:30 am19 °FLow clouds.8 mph86%30.69 "HgN/A
8:00 am19 °FLow clouds.8 mph86%30.69 "HgN/A
Weather by CustomWeather, © 2017

See weather overviewHow to use our weather pages